sat.trackr.live / text

‹ back to catalog

STARLINK-33921

NORAD 65934 · 2025-225AA

PAYLOAD ACTIVE UNKNOWN

§ Identity

Operator
Country
US
Launch date
2025-10-08
Launch site
AFWTR
Launch vehicle
Mass (kg)
RCS (m²)

Purposes: comms

External: N2YO · Heavens-Above · Gunter

§ Orbital elements

Epoch: 2026-05-25T01:32:50.633088Z

Period
94.10 min
Inclination
53.1589°
Eccentricity
0.0001279
Mean motion
15.30209060 rev/d
Perigee alt
474.3 km
Apogee alt
476.1 km
Semi-major
6,853.3 km
B*
4.9725e-4
RAAN
170.7640°
Arg perigee
82.7539°
Mean anomaly
277.3607°
Rev number
3,521

§ Raw data

STARLINK-339211 65934U 25225AA  26145.06447492  .00014401  00000+0  49725-3 0  99962 65934  53.1589 170.7640 0001279  82.7539 277.3607 15.30209060 35217

JSON: /api/v1/satellites/65934 · /tle

For live sub-satellite position, see the globe view (requires WebGL).

§ Visibility from observer

Set your observer location to see the next 7 days of passes ≥ 10°. The values pass through the URL so the page stays shareable.

No JS? Fill the form by hand. The geolocation button needs JavaScript.